Brainerd, MN

3:30 AM CST on December 14, 2017 (GMT -0600)
Brainerd-Crow Wing County Regional

Weather History for KBRD - October, 2012

Change the Weather History Date:

Monday, October 1, 2012

  Actual Average Record
Temperature  
Mean Temperature 56 °F 52 °F  
Max Temperature 69 °F 62 °F 86 °F (1976)
Min Temperature 39 °F 40 °F 21 °F (1974)
Degree Days  
Heating Degree Days 9 14  
Month to date heating degree days 14  
Cooling Degree Days 0 0  
Month to date cooling degree days 0  
Growing Degree Days 6 (Base 50)    
Moisture  
Dew Point 39 °F    
Average Humidity 52    
Maximum Humidity 79    
Minimum Humidity 25    
Precipitation  
Precipitation 0.00 in 0.11 in 2.90 in (1995)
Month to date precipitation 0.11  
Snow  
Snow 0.00 in 0.00 in - ()
Month to date snowfall 0.0  
Snow Depth -    
Sea Level Pressure  
Sea Level Pressure 29.94 in    
Wind  
Wind Speed 8 mph (NNW)    
Max Wind Speed 20 mph    
Max Gust Speed 33 mph    
Visibility 10 miles    
Events      
T = Trace of Precipitation, MM = Missing Value Source: NWS Daily Summary

Daily Weather History Graph

Daily Weather History Graph

Search for Another Location

Airport or City:

Trip Planner

Search our weather history database for the weather conditions in past years. The results will help you decide how hot, cold, wet, or windy it might be!

Date:

Astronomy

Oct. 01, 2012 Rise Set
Actual Time 7:15 AM CDT 6:55 PM CDT
Civil Twilight 6:45 AM CDT 7:25 PM CDT
Nautical Twilight 6:10 AM CDT 8:00 PM CDT
Astronomical Twilight 5:35 AM CDT 8:35 PM CDT
Moon 7:23 PM CDT (10/1) 8:54 AM CDT (10/1)
Length of Visible Light 12h 39m
Length of Day
11h 39m
Full, 98% of the Moon is Illuminated
Oct 1
Full
Oct 8
Last Quarter
Oct 15
New
Oct 21
First Quarter
Oct 29
Full

Hourly Weather History & Observations

Time (CDT) Temp. Dew Point Humidity Pressure Visibility Wind Dir Wind Speed Gust Speed Precip Events Conditions
12:53 AM 57.0 °F 45.0 °F 64% 29.85 in 10.0 mi Calm Calm - N/A   Partly Cloudy
1:53 AM 61.0 °F 44.1 °F 54% 29.86 in 10.0 mi NNW 9.2 mph - N/A   Scattered Clouds
2:53 AM 62.1 °F 46.9 °F 58% 29.86 in 10.0 mi North 8.1 mph - N/A   Scattered Clouds
3:53 AM 61.0 °F 45.0 °F 56% 29.87 in 10.0 mi NNW 15.0 mph - N/A   Partly Cloudy
4:53 AM 60.1 °F 42.1 °F 51% 29.88 in 10.0 mi NW 10.4 mph - N/A   Clear
5:53 AM 59.0 °F 39.9 °F 49% 29.90 in 10.0 mi NW 9.2 mph - 0.00 in   Mostly Cloudy
6:53 AM 57.9 °F 41.0 °F 53% 29.93 in 10.0 mi NW 12.7 mph - 0.00 in   Overcast
7:53 AM 57.0 °F 42.1 °F 57% 29.94 in 10.0 mi NNW 12.7 mph - N/A   Clear
8:53 AM 55.9 °F 43.0 °F 62% 29.96 in 10.0 mi NNW 13.8 mph - N/A   Clear
9:53 AM 57.9 °F 43.0 °F 58% 29.96 in 10.0 mi NNW 11.5 mph - N/A   Clear
10:53 AM 63.0 °F 44.1 °F 50% 29.97 in 10.0 mi North 15.0 mph - N/A   Clear
11:53 AM 64.9 °F 43.0 °F 45% 29.97 in 10.0 mi NNW 19.6 mph 31.1 mph N/A   Clear
1:53 PM 66.9 °F 39.0 °F 36% 29.97 in 10.0 mi North 17.3 mph 33.4 mph N/A   Clear
3:53 PM 68.0 °F 36.0 °F 31% 29.95 in 10.0 mi North 13.8 mph - N/A   Clear
5:53 PM 66.0 °F 28.9 °F 25% 29.97 in 10.0 mi North 15.0 mph - N/A   Clear
6:53 PM 63.0 °F 30.9 °F 30% 29.98 in 10.0 mi North 6.9 mph - N/A   Clear
7:53 PM 57.9 °F 32.0 °F 37% 29.99 in 10.0 mi North 3.5 mph - N/A   Clear
8:53 PM 53.1 °F 37.0 °F 55% 30.00 in 10.0 mi Calm Calm - N/A   Clear
9:53 PM 46.0 °F 34.0 °F 63% 30.01 in 10.0 mi Calm Calm - N/A   Clear
10:53 PM 44.1 °F 36.0 °F 73% 30.01 in 10.0 mi Calm Calm - N/A   Clear
11:53 PM 39.9 °F 34.0 °F 79% 30.00 in 10.0 mi Calm Calm - N/A   Clear